Kosmos-2425

operational
NORAD ID: 29671 Int'l Des: 2006-062 Owner: KVR/IACG Country: RU Constellation: GLONASS
MEOCIRCULAR

关于 Kosmos-2425

正在加载描述...

实时位置

正在加载3D地球...

即将过境

高度历史

Altitude vs Time

uPlot chart will show altitude changes over time

两行轨道根数

1 29671U 06062B 25301.37819911 .00000014 00000-0 00000-0 0 9994
2 29671 64.6970 202.2390 0021634 180.2553 350.0529 2.12963631146612
Epoch: Oct 28, 2025 • Age: 133 hours

当前状态

高度 19140.1 km
速度 3.95 km/s
星下点 62.40°N, 57.3°W
发射日期 Dec 25, 2006
运行时间 18.8 years
类型 other

技术详情

分类 Payload
质量 1450.00 kg
干质量 1200.00 kg
总质量 1450.00 kg
长度 4.00 m
直径 1.50 m
跨度 7.80 m
形状 Cyl + Ant + 2 Pan
制造商 RESH
平台类型 Uragan
阶段状态 In Orbit
所有者/国家 KVR/IACG/RU

大型星座

Loading constellations...